Location: Audrecelles
(50.8240°N, 1.5923°E)
Time: 02:28:40
(UTC+00:00)

Cosmos 44 - Pass Details

Date: 22 October 2025
Orbit: 576 x 774 km, 65.1° (Epoch: 13 November)

Event Time Altitude Azimuth Distance (km) Brightness Sun altitude
Exits shadow 03:27:47 49° 15° (NNE) 941 4.0 -28.9°
Maximum altitude 03:28:26 53° 42° (NE) 905 4.0 -28.8°
Drops below altitude 10° 03:33:35 10° 120° (ESE) 2,285 6.4 -28.0°
Sets 03:36:04 0° 125° (SE) 3,224 7.2 -27.7°
